Regional Weather Roundup
Issued by NWS

Home | Current Version | Previous Version | Text Only | Print | Product List | Glossary Off
Versions: 1 2 3 4 5 6 7 8 9 10 11 12 13 14 15 16 17 18 19 20 21 22 23 24 25 26 27 28 29 30 31 32 33 34 35 36 37 38 39 40 41 42 43 44 45 46 47 48 49 50

000
ASUS43 KLMK 271110
RWRKY
KENTUCKY REGIONAL WEATHER ROUNDUP
NATIONAL WEATHER SERVICE LOUISVILLE KY
700 AM EDT MON MAR 27 2017

NOTE "FAIR" INDICATES FEW OR NO CLOUDS BELOW 12,000 FEET
WITH NO SIGNIFICANT WEATHER AND/OR OBSTRUCTIONS TO VISIBILITY.

KYZ001>023-026-027-061>063-070>075-271200-
WESTERN AND SOUTH CENTRAL KENTUCKY

CITY           SKY/WX    TMP DP  RH WIND       PRES   REMARKS
PADUCAH        MOCLDY    55  50  83 E8        29.87S
HENDERSON      CLOUDY    48  43  81 E6        29.91F
OWENSBORO      MOCLDY    50  48  93 VRB3      29.94S
HOPKINSVILLE   CLOUDY    54  52  94 E6        29.92S
BOWLING GREEN  CLOUDY    51  49  92 CALM      29.96R
GLASGOW        CLOUDY    51  51 100 CALM      29.97R
$$

KYZ024-025-028>034-038-045-046-053-271200-
NORTH CENTRAL KENTUCKY

CITY           SKY/WX    TMP DP  RH WIND       PRES   REMARKS
LOUISVILLE/SDF MOCLDY    53  48  83 CALM      29.97R
LOUISVILLE/LOU MOCLDY    51  47  86 CALM      29.98R
FORT KNOX      CLOUDY    49  48  99 CALM      29.95R
$$

KYZ035>037-039>044-047>052-055>060-089>105-271200-
NORTHEAST KENTUCKY

CITY           SKY/WX    TMP DP  RH WIND       PRES   REMARKS
LEXINGTON      PTCLDY    53  51  93 SE5       29.98F
COVINGTON      PTCLDY    45  45 100 CALM      29.97S FOG
FRANKFORT      CLOUDY    52  48  86 CALM      29.96F
$$

KYZ054-064>069-076>088-106>120-271200-
SOUTHEAST KENTUCKY

CITY           SKY/WX    TMP DP  RH WIND       PRES   REMARKS
JACKSON        CLOUDY    56  53  90 CALM      30.02R
LONDON         CLOUDY    50  48  93 CALM      30.01R
SOMERSET       PTCLDY    50  50 100 CALM      30.01R
MIDDLESBORO    CLOUDY    46  46 100 CALM      30.05R
MONTICELLO     PTSUNNY   46  45  96 VRB5      30.01R
$$





USA.gov is the U.S. government's official web portal to all federal, state and local government web resources and services.